Location: Majestic Skies Ranch
(34.0000°N, 105.9300°W)
Time: 02:42:42
(UTC-06:00)

ISS - Visible Passes

Search period start: 27 September 2016 00:00
Search period end: 07 October 2016 00:00
Orbit: 400 x 410 km, 51.6° (Epoch: 27 September)

Date Brightness Start Highest point End Pass type
(mag) Time Alt. Az. Time Alt. Az. Time Alt. Az.
27 Sep -1.9 19:28:45 10° S 19:31:17 21° SE 19:33:17 13° E visible
27 Sep -0.5 21:04:48 10° W 21:05:59 18° W 21:05:59 18° W visible
28 Sep -2.7 20:12:18 10° WSW 20:15:29 55° NW 20:16:47 30° NNE visible
29 Sep -3.3 19:20:12 10° SW 19:23:24 65° SE 19:26:38 10° NE visible
29 Sep -0.3 20:58:26 10° WNW 21:00:04 14° NNW 21:00:04 14° NNW visible
30 Sep -1.0 20:05:14 10° W 20:07:52 22° NW 20:10:27 10° NNE visible
01 Oct -2.1 19:12:33 10° WSW 19:15:38 41° NW 19:18:44 10° NNE visible
02 Oct -0.4 19:59:11 10° NW 20:00:22 11° NNW 20:01:33 10° N visible
03 Oct -0.8 19:05:37 10° W 19:07:58 18° NNW 19:10:21 10° NNE visible
